#timestamp,LO_Frequency,Hit,StdDev 
1692014415.7,286047001.1,N
1692014435.5,286046998.4,N
1692014455.4,286047001.2,N
1692014475.2,286047000.7,N
1692014495.1,286047001.2,N
1692014496.0,286047001.2,N
1692014515.8,286046998.4,N
1692014535.6,286046999.0,N
1692014555.5,286046997.2,N
1692014575.3,286046996.5,N
1692014595.2,286046999.6,N
1692014615.9,286046996.9,N
1692014635.7,286046996.5,N
1692014655.6,286046998.8,N
1692014675.4,286046996.7,N
1692014695.2,286046996.8,N
1692014715.1,286046996.9,N
1692014716.0,286046996.9,N
1692014735.8,286046997.8,N
1692014755.7,286046996.6,N
1692014775.5,286046999.6,N
1692014795.3,286046998.7,N
1692014815.2,286046998.7,N
1692014835.0,286046999.6,N
1692014835.9,286046999.6,N
1692014855.7,286046996.9,N
1692014875.6,286046996.6,N
1692014895.4,286046999.5,N
1692014915.3,286046997.8,N
1692014935.1,286046997.3,N
1692014936.0,286046997.3,N
1692014955.8,286046997.3,N
1692014975.7,286046997.1,N
1692014995.5,286046997.1,N
1692015015.3,286046997.3,N
1692015035.2,286046997.7,N
1692015055.0,286046998.0,N
1692015055.9,286046998.0,N
1692015075.8,286046996.4,Y
1692015095.6,286046997.1,P
1692015115.4,286046996.9,P
1692015135.3,286046999.1,N
1692015155.1,286046999.6,N
1692015175.8,286046999.4,N
1692015195.7,286046999.1,N
1692015215.5,286046998.6,N
1692015235.4,286047001.1,N
1692015255.2,286047001.2,N
1692015275.0,286046999.0,N
1692015275.9,286046999.0,N
1692015295.8,286046998.9,N
1692015315.6,286046998.4,N
1692015335.4,286046998.7,N
1692015355.3,286046998.4,N
1692015375.1,286046999.0,N
1692015395.9,286046999.1,N
1692015415.7,286046998.4,N
1692015435.5,286046998.3,N
1692015455.4,286046998.3,N
1692015475.2,286046998.3,N
1692015495.0,286046998.4,N
1692015495.9,286046998.4,N
1692015515.8,286047001.2,N
1692015535.6,286046998.3,N
1692015555.5,286046998.4,N
1692015575.3,286046998.8,N
1692015595.1,286046998.8,N
1692015615.9,286046998.8,N
1692015635.7,286046999.5,N
1692015655.5,286046998.4,N
1692015675.4,286046999.3,N
1692015695.2,286046998.7,N
1692015715.1,286046996.9,Y
1692015716.0,286046996.9,P
1692015735.8,286046998.4,N
1692015755.6,286047000.8,N
1692015775.5,286047000.7,N
1692015795.3,286047000.6,N
1692015815.2,286046998.8,N
1692015835.9,286046998.4,N
1692015855.7,286047000.8,N
1692015875.6,286047001.0,N
1692015895.4,286046998.6,N
1692015915.2,286046998.2,N
1692015935.1,286046998.7,N
1692015936.0,286046998.7,N
1692015955.8,286046998.5,N
1692015975.7,286046998.9,N
1692015995.5,286047000.7,N
1692016015.3,286046998.5,N
1692016035.2,286046998.5,N
1692016055.0,286046999.0,N
1692016055.9,286046999.0,N
1692016075.8,286046999.1,N
1692016095.6,286046996.7,Y
1692016115.4,286046997.0,P
1692016135.3,286046996.9,N
1692016155.1,286046996.7,P
1692016175.8,286046997.4,N
1692016195.7,286046996.9,Y
1692016215.5,286047001.2,P
1692016235.4,286047001.0,N
1692016255.2,286047000.6,N
1692016275.0,286046998.1,N
1692016275.9,286046998.1,N
1692016295.8,286047000.7,N
1692016315.6,286046998.5,N
1692016335.4,286046998.6,N
1692016355.3,286046999.0,N
1692016375.1,286047001.0,N
1692016395.9,286046998.2,N
1692016415.7,286047001.1,N
1692016435.5,286046998.1,N
1692016455.4,286046998.2,N
1692016475.2,286046999.2,N
1692016495.0,286046999.1,N
1692016495.9,286046999.1,N
1692016515.8,286046998.6,N
1692016535.6,286046997.0,N
1692016555.5,286046999.2,N
1692016575.3,286046996.9,N
1692016595.1,286046997.0,N
1692016615.9,286046997.6,N
1692016635.7,286046996.0,N
1692016655.5,286046995.6,Y
1692016675.4,286046997.6,P
1692016695.2,286046995.5,P
1692016715.1,286046995.6,P
1692016716.0,286046995.6,Y
1692016735.8,286047000.4,P
1692016755.6,286047000.6,N
1692016775.5,286047000.0,N
1692016795.3,286047000.4,N
1692016815.1,286047000.4,N
1692016835.9,286047000.2,N
1692016855.7,286047001.7,N
1692016875.6,286047002.6,N
1692016895.4,286047002.6,N
1692016915.2,286047002.2,N
1692016935.1,286047001.7,N
1692016936.0,286047001.7,N
1692016955.8,286047001.6,N
1692016975.6,286047001.7,N
1692016995.5,286047003.7,N
1692017015.3,286047001.3,N
1692017035.2,286047001.8,N
1692017055.9,286047001.8,N
1692017075.7,286047004.4,Y
1692017095.6,286047002.1,P
1692017115.4,286047002.2,P
1692017135.2,286047002.1,P
1692017155.1,286047001.8,Y
1692017156.0,286047001.8,P
1692017175.8,286047000.7,P
1692017195.7,286047001.0,N
1692017215.5,286047000.2,N
1692017235.3,286047002.7,Y
1692017255.2,286047001.2,P
1692017275.0,286047001.1,P
1692017275.9,286047001.1,P
1692017295.8,286047000.3,Y
1692017315.6,286047001.1,P
1692017335.4,286046998.5,P
1692017355.3,286046998.1,N
1692017375.1,286046998.4,N
1692017395.8,286046998.5,N
1692017415.7,286046998.6,N
1692017435.5,286046999.0,N
1692017455.4,286046998.3,N
1692017475.2,286046998.7,N
1692017495.0,286047000.9,N
1692017495.9,286047000.9,N
1692017515.8,286046998.5,N
1692017535.6,286046998.3,N
1692017555.4,286046998.5,N
1692017575.3,286046998.5,N
1692017595.1,286046998.2,N
1692017615.9,286047000.0,N
1692017635.7,286046998.5,N
1692017655.5,286047001.0,N
1692017675.4,286047000.9,N
1692017695.2,286047002.5,N
1692017715.0,286046999.9,N
1692017715.9,286046999.9,N
1692017735.8,286046998.6,N
1692017755.6,286046998.4,N
1692017775.5,286046998.1,N
1692017795.3,286046998.3,N
1692017815.1,286047000.7,N
1692017835.9,286046998.2,N
1692017855.7,286047000.7,N
1692017875.6,286047000.6,N
1692017895.4,286046998.2,N
1692017915.2,286046998.5,N
1692017935.1,286046998.1,N
1692017936.0,286046998.1,N
1692017955.8,286047000.3,N
1692017975.6,286047000.6,N
1692017995.5,286047002.5,N
